N8SHA Weather Reports


Display with metric or nautical units.
time (UTC)temp
F
wind
direction
speed
MPH
gust
MPH
rain 1hr
in
rain 24hr
in
rain mn
in
humidity
%
barometer
mb
20260903160115 72 5 0.0 3.0 0.02 0.67 0.67 99 1015.5
20260903155614 72 77 0.0 1.0 0.00 0.67 0.67 99 1015.6
20260903155109 71 164 0.0 1.0 0.00 0.67 0.67 99 1015.6
20260903154605 70 142 0.0 2.0 0.00 0.67 0.67 99 1015.9
20260903154102 70 152 2.0 3.0 0.00 0.67 0.67 99 1016.0
20260903153557 69 15 0.0 1.0 0.00 0.67 0.67 99 1016.1
20260903153052 69 99 1.0 2.0 0.02 0.67 0.67 99 1015.8
20260903152548 69 157 2.0 2.0 0.12 0.67 0.67 99 1016.7
20260903152045 69 35 1.0 2.0 0.45 0.67 0.67 99 1017.4
20260903151543 69 94 2.0 3.0 0.52 0.64 0.64 98 1017.5
20260903151039 69 36 2.0 5.0 0.35 0.59 0.59 98 1017.6
20260903150532 69 109 3.0 3.0 1.47 0.55 0.55 98 1017.6
20260903150028 70 339 4.0 12.0 2.08 0.52 0.52 97 1017.8
20260903145522 74 136 7.0 24.0 0.61 0.26 0.26 96 1018.1
20260903145018 76 215 4.0 5.0 0.02 0.16 0.16 97 1017.5
20260903144516 76 205 0.0 3.0 0.00 0.15 0.15 97 1015.9
20260903144013 76 222 2.0 3.0 0.00 0.15 0.15 97 1015.4
20260903143509 76 199 0.0 3.0 0.00 0.15 0.15 97 1015.4
20260903143005 76 225 2.0 3.0 0.00 0.15 0.15 97 1015.2
20260903142459 77 129 0.0 1.0 0.00 0.15 0.15 96 1015.2
20260903141955 77 160 0.0 2.0 0.00 0.15 0.15 96 1015.2
20260903141451 77 164 0.0 1.0 0.00 0.15 0.15 96 1015.4
20260903140947 77 160 2.0 3.0 0.00 0.15 0.15 96 1015.7
20260903140442 77 243 2.0 3.0 0.00 0.15 0.15 96 1015.5
20260903135937 76 156 1.0 2.0 0.00 0.15 0.15 98 1015.4
20260903135433 75 129 0.0 2.0 0.00 0.15 0.15 99 1015.2
20260903134927 75 205 0.0 2.0 0.00 0.15 0.15 99 1015.2
20260903134426 75 55 0.0 1.0 0.00 0.15 0.15 99 1015.2
20260903133924 74 135 0.0 2.0 0.00 0.15 0.15 99 1015.4
20260903133420 74 223 1.0 3.0 0.00 0.15 0.15 99 1015.4
20260903132915 73 127 0.0 2.0 0.00 0.15 0.15 99 1015.4
20260903132410 73 242 0.0 3.0 0.00 0.15 0.15 99 1015.5
20260903131905 73 104 0.0 2.0 0.00 0.15 0.15 99 1015.5
20260903131405 73 129 0.0 2.0 0.00 0.15 0.15 99 1015.7
20260903130904 72 220 0.0 2.0 0.00 0.15 0.15 99 1015.5
20260903130359 72 181 0.0 2.0 0.00 0.15 0.15 99 1015.6
20260903125858 72 154 0.0 2.0 0.00 0.15 0.15 99 1015.4
20260903125353 72 154 0.0 1.0 0.00 0.15 0.15 99 1015.6
20260903124852 72 129 0.0 1.0 0.00 0.15 0.15 99 1015.4
20260903124348 72 75 0.0 1.0 0.00 0.15 0.15 99 1015.5
20260903123846 71 135 0.0 0.0 0.00 0.15 0.15 99 1015.5
20260903123341 71 129 0.0 1.0 0.00 0.15 0.15 99 1015.7
20260903122839 71 117 0.0 1.0 0.00 0.15 0.15 99 1015.7
20260903122335 71 157 0.0 1.0 0.00 0.15 0.15 99 1015.7
20260903121833 71 142 0.0 1.0 0.00 0.15 0.15 99 1015.6
20260903121329 71 135 0.0 1.0 0.00 0.15 0.15 99 1015.8
20260903120824 70 89 0.0 2.0 0.00 0.15 0.15 99 1015.9
20260903120318 70 130 0.0 1.0 0.00 0.15 0.15 99 1015.8
20260903115816 70 104 0.0 2.0 0.00 0.15 0.15 99 1015.7
20260903115312 70 154 0.0 2.0 0.00 0.15 0.15 99 1015.7
20260903114811 69 115 1.0 1.0 0.00 0.15 0.15 99 1015.7
20260903114307 69 61 0.0 1.0 0.00 0.15 0.15 99 1015.7
20260903113802 69 63 0.0 1.0 0.00 0.15 0.15 99 1015.7
20260903113257 69 128 0.0 1.0 0.00 0.15 0.15 99 1015.7
20260903112753 69 89 0.0 0.0 0.00 0.15 0.15 99 1015.7
20260903112249 69 101 0.0 1.0 0.00 0.15 0.15 99 1015.8
20260903111748 69 76 0.0 0.0 0.00 0.15 0.15 99 1015.6
20260903111243 69 113 0.0 1.0 0.00 0.15 0.15 99 1015.7
20260903110739 69 73 0.0 1.0 0.00 0.15 0.15 99 1015.5
20260903110235 69 75 0.0 1.0 0.00 0.15 0.15 99 1015.5
20260903105734 69 89 0.0 0.0 0.00 0.15 0.15 99 1015.6
20260903105229 69 89 0.0 0.0 0.00 0.15 0.15 99 1015.3
20260903104729 68 75 0.0 0.0 0.00 0.15 0.15 99 1015.4
20260903104224 68 103 0.0 0.0 0.00 0.15 0.15 99 1015.3
20260903103720 68 103 0.0 0.0 0.00 0.15 0.15 99 1015.4
20260903103216 69 76 0.0 1.0 0.00 0.15 0.15 99 1015.1
20260903102712 69 76 0.0 1.0 0.00 0.15 0.15 99 1015.3
20260903102211 69 118 0.0 1.0 0.00 0.15 0.15 99 1015.3
20260903101710 69 129 0.0 0.0 0.00 0.15 0.15 99 1015.1
20260903101206 69 104 0.0 1.0 0.00 0.15 0.15 99 1015.0
20260903100705 69 142 0.0 1.0 0.00 0.15 0.15 99 1015.3
20260903100200 69 110 0.0 0.0 0.00 0.15 0.15 99 1015.0
20260903095657 69 117 0.0 2.0 0.00 0.15 0.15 99 1015.0
20260903095152 69 75 0.0 0.0 0.00 0.15 0.15 99 1015.1
20260903094647 69 65 0.0 1.0 0.00 0.15 0.15 99 1015.2
20260903094143 69 117 0.0 1.0 0.00 0.15 0.15 99 1015.1
20260903093637 69 117 0.0 1.0 0.00 0.15 0.15 99 1015.0
20260903093132 69 130 0.0 0.0 0.00 0.15 0.15 99 1015.1
20260903092627 69 168 0.0 2.0 0.00 0.15 0.15 99 1014.8
20260903092122 69 135 0.0 1.0 0.00 0.15 0.15 99 1015.0
20260903091620 69 180 0.0 1.0 0.00 0.15 0.15 99 1014.9
20260903091115 69 142 0.0 2.0 0.00 0.15 0.15 99 1014.9
20260903090611 69 351 0.0 2.0 0.00 0.15 0.15 99 1014.9
20260903090109 69 246 0.0 1.0 0.00 0.15 0.15 99 1014.8
20260903085608 70 164 0.0 1.0 0.00 0.15 0.15 99 1014.9
20260903085104 70 157 0.0 2.0 0.00 0.15 0.15 99 1014.7
20260903084602 70 242 0.0 2.0 0.00 0.15 0.15 99 1015.0
20260903084057 70 189 1.0 2.0 0.00 0.15 0.15 99 1014.8
20260903083553 70 152 0.0 2.0 0.00 0.15 0.15 99 1014.7
20260903083052 70 164 0.0 1.0 0.00 0.15 0.15 99 1014.7
20260903082546 70 171 0.0 2.0 0.00 0.15 0.15 99 1014.8
20260903082042 70 165 0.0 2.0 0.00 0.15 0.15 99 1014.8
20260903081537 70 149 1.0 2.0 0.00 0.15 0.15 99 1014.8
20260903081033 70 326 0.0 2.0 0.00 0.15 0.15 99 1014.8
20260903080529 70 63 0.0 2.0 0.00 0.15 0.15 99 1014.6
20260903080026 70 203 1.0 2.0 0.00 0.15 0.15 99 1014.8
20260903075520 70 40 0.0 2.0 0.00 0.15 0.15 99 1014.8
20260903075016 70 163 0.0 2.0 0.00 0.15 0.15 99 1014.7
20260903074515 71 232 0.0 2.0 0.00 0.15 0.15 99 1014.7
20260903074009 71 283 0.0 2.0 0.00 0.15 0.15 99 1014.9
20260903073505 71 202 0.0 2.0 0.00 0.15 0.15 99 1014.8
20260903073001 71 220 0.0 2.0 0.00 0.15 0.15 99 1014.8
20260903072456 71 164 0.0 2.0 0.00 0.15 0.15 99 1014.8
20260903071953 71 142 0.0 1.0 0.00 0.15 0.15 99 1014.7
20260903071449 71 163 0.0 1.0 0.00 0.15 0.15 99 1014.7
20260903070944 71 129 0.0 0.0 0.00 0.15 0.15 99 1014.6
20260903070443 71 217 0.0 2.0 0.00 0.15 0.15 99 1014.9
20260903065938 71 175 0.0 2.0 0.02 0.15 0.15 98 1014.7
20260903065433 71 190 1.0 3.0 0.05 0.15 0.15 98 1014.8
20260903064932 71 170 1.0 6.0 0.02 0.15 0.15 98 1015.2
20260903064427 71 229 1.0 3.0 0.00 0.15 0.15 98 1015.0
20260903063923 71 170 0.0 1.0 0.17 0.15 0.15 98 1014.7
20260903063418 71 117 0.0 2.0 0.24 0.14 0.14 98 1014.6
20260903062914 71 173 0.0 1.0 0.09 0.11 0.11 98 1014.8
20260903062414 71 135 0.0 0.0 0.02 0.10 0.10 98 1014.9
20260903061909 71 135 0.0 0.0 0.00 0.10 0.10 97 1014.5
20260903061409 71 129 0.0 1.0 0.00 0.10 0.10 97 1014.6
20260903060904 72 117 0.0 1.0 0.00 0.10 0.10 97 1014.7
20260903060359 72 129 0.0 1.0 0.00 0.10 0.10 97 1014.6
20260903055857 72 95 1.0 2.0 0.02 0.10 0.10 97 1014.8
20260903055355 72 135 0.0 5.0 0.07 0.10 0.10 96 1014.9
20260903054850 72 17 1.0 2.0 0.07 0.09 0.09 96 1015.1
20260903054350 72 149 1.0 2.0 0.14 0.09 0.09 96 1015.2
20260903053847 72 147 1.0 2.0 0.09 0.08 0.08 95 1015.1
20260903053341 72 284 0.0 1.0 0.17 0.06 0.06 94 1014.8
20260903052837 73 62 0.0 1.0 0.35 0.06 0.06 92 1014.7
20260903052332 73 77 2.0 2.0 0.05 0.01 0.01 90 1014.7
20260903051828 73 25 0.0 2.0 0.00 0.00 0.00 90 1014.9
20260903051324 73 88 0.0 1.0 0.00 0.00 0.00 89 1014.6
20260903050819 73 89 0.0 0.0 0.00 0.00 0.00 89 1014.7
20260903050318 73 89 0.0 0.0 0.00 0.00 0.00 88 1014.5
20260903045813 73 119 0.0 1.0 0.00 0.00 0.00 88 1014.5
20260903045308 73 136 0.0 1.0 0.00 0.00 0.00 88 1014.5
20260903044805 73 217 0.0 2.0 0.00 0.00 0.00 87 1014.5
20260903044300 74 117 0.0 1.0 0.00 0.00 0.00 87 1014.3
20260903043757 74 156 0.0 1.0 0.00 0.00 0.00 87 1014.5
20260903043256 74 255 0.0 0.0 0.00 0.00 0.00 86 1014.5
20260903042755 74 255 0.0 0.0 0.00 0.00 0.00 86 1014.5
20260903042251 74 255 0.0 0.0 0.00 0.00 0.00 86 1014.4
20260903041747 75 255 0.0 0.0 0.00 0.00 0.00 86 1014.3
20260903041243 75 255 0.0 2.0 0.00 0.00 0.00 86 1014.3
20260903040743 75 333 0.0 0.0 0.00 0.00 0.00 87 1014.5
20260903040237 74 242 0.0 2.0 0.00 0.00 0.00 87 1014.4
20260903035733 74 177 0.0 1.0 0.00 0.00 0.00 88 1014.3
20260903035229 74 332 0.0 2.0 0.00 0.00 0.00 88 1014.4
20260903034723 74 159 0.0 2.0 0.00 0.00 0.00 89 1014.3
20260903034218 75 159 1.0 3.0 0.00 0.00 0.00 89 1014.8
20260903033713 75 165 0.0 3.0 0.00 0.00 0.00 89 1014.6
20260903033208 75 200 0.0 3.0 0.00 0.00 0.00 90 1014.3
20260903032703 76 155 0.0 2.0 0.00 0.00 0.00 90 1014.1
20260903032159 76 180 0.0 2.0 0.00 0.00 0.00 90 1013.8
20260903031654 77 187 0.0 2.0 0.00 0.00 0.00 90 1013.9
20260903031154 77 173 1.0 2.0 0.00 0.00 0.00 89 1014.0
20260903030650 77 96 0.0 2.0 0.00 0.00 0.00 88 1013.9
20260903030145 78 108 3.0 4.0 0.00 0.00 0.00 88 1014.1
20260903025640 78 184 2.0 3.0 0.00 0.00 0.00 89 1013.8
20260903025136 78 242 0.0 3.0 0.00 0.00 0.00 89 1013.6
20260903024630 78 190 0.0 7.0 0.00 0.00 0.00 89 1013.8
20260903024124 78 213 3.0 3.0 0.00 0.00 0.00 89 1014.1
20260903023620 78 309 0.0 1.0 0.00 0.00 0.00 89 1013.9
20260903023115 78 171 1.0 2.0 0.00 0.00 0.00 89 1013.9
20260903022615 78 117 0.0 1.0 0.00 0.00 0.00 89 1013.7
20260903022114 79 155 0.0 2.0 0.00 0.00 0.00 89 1013.4
20260903021603 79 197 0.0 2.0 0.00 0.00 0.00 88 1013.0
20260903021103 79 157 0.0 0.0 0.00 0.00 0.00 87 1013.4
20260903020558 80 154 0.0 0.0 0.00 0.00 0.00 86 1013.9
20260903020053 80 32 0.0 2.0 0.00 0.00 0.00 84 1014.3
20260903015548 80 315 0.0 0.0 0.00 0.00 0.00 83 1014.2
20260903015038 81 329 2.0 3.0 0.00 0.00 0.00 83 1014.5
20260903014537 81 56 1.0 4.0 0.00 0.00 0.00 82 1014.3
20260903014032 81 333 1.0 2.0 0.00 0.00 0.00 82 1014.3
20260903013531 81 9 1.0 2.0 0.00 0.00 0.00 82 1014.5
20260903013026 81 3 1.0 3.0 0.00 0.00 0.00 83 1014.3
20260903012520 81 146 1.0 2.0 0.00 0.00 0.00 84 1014.3
20260903012019 80 22 1.0 3.0 0.00 0.00 0.00 85 1014.2
20260903011519 80 310 0.0 0.0 0.00 0.00 0.00 85 1014.2
20260903011014 80 117 0.0 0.0 0.00 0.00 0.00 85 1014.3
20260903010509 80 117 0.0 0.0 0.00 0.00 0.00 84 1014.1
20260903010007 81 117 0.0 0.0 0.00 0.00 0.00 84 1013.9
20260903005502 81 202 0.0 2.0 0.00 0.00 0.00 84 1013.6
20260903004959 81 198 0.0 2.0 0.00 0.00 0.00 83 1013.6
20260903004458 81 179 0.0 2.0 0.00 0.00 0.00 84 1013.4
20260903003954 81 309 0.0 0.0 0.00 0.00 0.00 83 1013.7
20260903003448 81 187 0.0 2.0 0.00 0.00 0.00 83 1013.4
20260903002943 82 160 2.0 3.0 0.00 0.00 0.00 83 1013.4
20260903002438 82 210 1.0 2.0 0.00 0.00 0.00 83 1013.2
20260903001938 81 157 0.0 2.0 0.00 0.00 0.00 83 1013.2
20260903001437 81 131 1.0 2.0 0.00 0.00 0.00 84 1013.4
20260903000932 80 143 0.0 2.0 0.00 0.00 0.00 86 1013.4
20260903000428 80 129 0.0 2.0 0.00 0.00 0.00 87 1013.2
20260902235925 80 157 0.0 2.0 0.00 0.00 0.00 86 1013.2
20260902235421 82 127 1.0 2.0 0.02 0.00 0.00 83 1013.7
20260902234915 85 136 1.0 3.0 0.02 0.00 0.00 75 1013.6
20260902234410 85 175 0.0 2.0 0.00 0.00 0.00 72 1013.4
20260902233909 86 196 1.0 2.0 0.00 0.00 0.00 71 1013.3
20260902233409 86 170 1.0 2.0 0.00 0.00 0.00 70 1013.6
20260902232908 87 201 1.0 2.0 0.00 0.00 0.00 69 1013.4
20260902232403 87 205 0.0 2.0 0.00 0.00 0.00 69 1013.4
20260902231857 87 156 0.0 4.0 0.00 0.00 0.00 67 1013.4
20260902231352 88 225 1.0 2.0 0.00 0.00 0.00 67 1013.4
20260902230846 88 230 1.0 4.0 0.00 0.00 0.00 67 1013.2
20260902230346 87 180 0.0 5.0 0.00 0.00 0.00 67 1013.1
20260902225840 87 212 0.0 3.0 0.00 0.00 0.00 67 1013.2
20260902225336 88 133 1.0 3.0 0.00 0.00 0.00 67 1013.2
20260902224834 88 188 0.0 3.0 0.00 0.00 0.00 66 1013.2
20260902224329 88 198 2.0 5.0 0.00 0.00 0.00 65 1013.2
20260902223826 89 178 1.0 4.0 0.00 0.00 0.00 66 1013.2
20260902223325 89 341 2.0 5.0 0.00 0.00 0.00 65 1013.1
20260902222819 89 211 2.0 3.0 0.00 0.00 0.00 66 1013.4
20260902222318 89 187 0.0 3.0 0.00 0.00 0.00 66 1013.3
20260902221813 89 131 0.0 2.0 0.00 0.00 0.00 66 1013.3
20260902221312 89 187 2.0 3.0 0.00 0.00 0.00 64 1013.3
20260902220808 90 171 1.0 3.0 0.00 0.00 0.00 64 1013.2
20260902220307 89 162 2.0 5.0 0.00 0.00 0.00 64 1013.0
20260902215803 90 177 0.0 4.0 0.00 0.00 0.00 64 1013.0
20260902215258 90 181 3.0 5.0 0.00 0.00 0.00 64 1013.0
20260902214754 91 44 2.0 8.0 0.00 0.00 0.00 62 1012.7
20260902214253 92 68 1.0 5.0 0.00 0.00 0.00 62 1012.9
20260902213749 93 183 2.0 5.0 0.00 0.00 0.00 60 1012.8
20260902213248 92 33 4.0 6.0 0.00 0.00 0.00 60 1013.0
20260902212747 93 219 1.0 6.0 0.00 0.00 0.00 60 1013.0
20260902212245 92 21 1.0 8.0 0.00 0.00 0.00 61 1013.1
20260902211740 93 206 0.0 2.0 0.00 0.00 0.00 61 1013.0
20260902211235 93 221 1.0 5.0 0.00 0.00 0.00 60 1013.1
20260902210730 93 209 2.0 6.0 0.00 0.00 0.00 60 1013.1
20260902210225 93 208 2.0 4.0 0.00 0.00 0.00 59 1013.1
20260902205723 94 188 2.0 6.0 0.00 0.00 0.00 58 1013.0
20260902205218 93 204 4.0 5.0 0.00 0.00 0.00 58 1013.2
20260902204714 93 178 3.0 8.0 0.00 0.00 0.00 59 1013.3
20260902204208 93 189 1.0 4.0 0.00 0.00 0.00 60 1013.7
20260902203703 93 168 2.0 6.0 0.00 0.00 0.00 60 1013.7
20260902203158 93 341 0.0 3.0 0.00 0.00 0.00 61 1013.4
20260902202653 93 148 3.0 4.0 0.00 0.00 0.00 60 1013.7
20260902202150 93 168 3.0 6.0 0.00 0.00 0.00 61 1013.9
20260902201646 93 190 2.0 7.0 0.00 0.00 0.00 60 1013.8
20260902201144 93 207 1.0 5.0 0.00 0.00 0.00 63 1014.0
20260902200639 93 275 2.0 4.0 0.00 0.00 0.00 60 1014.0
20260902200135 92 194 2.0 4.0 0.00 0.00 0.00 61 1014.0
20260902195631 92 188 4.0 5.0 0.00 0.00 0.00 61 1014.0
20260902195131 93 185 2.0 4.0 0.00 0.00 0.00 60 1014.1
20260902194629 93 204 3.0 7.0 0.00 0.00 0.00 59 1014.2
20260902194125 92 195 4.0 6.0 0.00 0.00 0.00 59 1014.2
20260902193620 93 172 5.0 9.0 0.00 0.00 0.00 59 1014.4
20260902193115 93 184 2.0 6.0 0.00 0.00 0.00 59 1014.5
20260902192613 93 129 2.0 5.0 0.00 0.00 0.00 59 1014.5
20260902192113 94 201 2.0 6.0 0.00 0.00 0.00 59 1014.6
20260902191608 94 253 2.0 7.0 0.00 0.00 0.00 59 1014.9
20260902191102 94 252 3.0 6.0 0.00 0.00 0.00 60 1014.9
20260902190558 94 284 0.0 3.0 0.00 0.00 0.00 60 1014.9
20260902190053 94 176 4.0 6.0 0.00 0.00 0.00 58 1014.7
20260902185549 94 249 3.0 6.0 0.00 0.00 0.00 58 1014.8
20260902185044 93 189 2.0 5.0 0.00 0.00 0.00 62 1014.7
20260902184539 94 186 7.0 7.0 0.00 0.00 0.00 58 1014.8
20260902184034 94 76 0.0 5.0 0.00 0.00 0.00 60 1014.7
20260902183531 95 238 3.0 6.0 0.00 0.00 0.00 57 1014.6
20260902183027 95 197 3.0 5.0 0.00 0.00 0.00 59 1014.9
20260902182523 93 207 1.0 6.0 0.00 0.00 0.00 62 1014.8
20260902182019 94 186 2.0 5.0 0.00 0.00 0.00 59 1014.9
20260902181515 94 244 1.0 4.0 0.00 0.00 0.00 63 1014.9
20260902181009 94 225 1.0 6.0 0.00 0.00 0.00 62 1014.9
20260902180509 93 141 0.0 5.0 0.00 0.00 0.00 62 1014.8
20260902180006 92 188 2.0 5.0 0.00 0.00 0.00 64 1014.9
20260902175459 91 242 1.0 4.0 0.00 0.00 0.00 65 1014.8
20260902174954 92 224 2.0 6.0 0.00 0.00 0.00 64 1014.8
20260902174451 93 216 1.0 4.0 0.00 0.00 0.00 63 1014.7
20260902173946 93 217 1.0 4.0 0.00 0.00 0.00 64 1014.8
20260902173445 93 195 3.0 7.0 0.00 0.00 0.00 63 1015.2
20260902172941 93 161 1.0 5.0 0.00 0.00 0.00 62 1015.1
20260902172440 92 187 2.0 4.0 0.00 0.00 0.00 65 1015.2
20260902171935 91 171 2.0 5.0 0.00 0.00 0.00 65 1015.3
20260902171431 92 213 3.0 4.0 0.00 0.00 0.00 65 1015.5
20260902170927 92 201 1.0 5.0 0.00 0.00 0.00 65 1015.4
20260902170422 92 110 0.0 6.0 0.00 0.00 0.00 65 1015.7
20260902165917 91 187 2.0 4.0 0.00 0.00 0.00 66 1015.6
20260902165417 91 309 3.0 4.0 0.00 0.00 0.00 69 1015.7
20260902164911 91 211 3.0 6.0 0.00 0.00 0.00 67 1015.8
20260902164407 91 180 3.0 4.0 0.00 0.00 0.00 67 1015.8
20260902163906 91 189 2.0 4.0 0.00 0.00 0.00 67 1015.8
20260902163401 91 96 3.0 5.0 0.00 0.00 0.00 67 1016.0
20260902162859 91 232 0.0 4.0 0.00 0.00 0.00 68 1015.9
20260902162354 90 89 3.0 4.0 0.00 0.00 0.00 68 1015.9
20260902161854 90 125 0.0 3.0 0.00 0.00 0.00 69 1016.0
20260902161349 89 102 2.0 7.0 0.00 0.00 0.00 68 1016.0
20260902160845 89 44 2.0 5.0 0.00 0.00 0.00 69 1016.1
20260902160341 89 330 2.0 5.0 0.00 0.00 0.00 69 1016.1